| time (UTC) | temp F | wind direction | speed MPH | gust MPH | rain 1hr in | rain 24hr in | rain mn in | humidity % | barometer mb |
| 20260508161012 | 62 | 250 | 3.0 | 9.0 | 0.00 | 0.00 | 0.00 | 28 | 1002.4 |
| 20260508160515 | 62 | 292 | 4.0 | 11.0 | 0.00 | 0.00 | 0.00 | 30 | 1002.6 |
| 20260508160034 | 62 | 294 | 3.0 | 11.0 | 0.00 | 0.00 | 0.00 | 31 | 1002.5 |
| 20260508155514 | 61 | 271 | 3.0 | 8.0 | 0.00 | 0.00 | 0.00 | 34 | 1002.6 |
| 20260508155013 | 61 | 267 | 2.0 | 6.0 | 0.00 | 0.00 | 0.00 | 38 | 1002.6 |
| 20260508154534 | 61 | 279 | 3.0 | 7.0 | 0.00 | 0.00 | 0.00 | 38 | 1002.6 |
| 20260508154013 | 61 | 250 | 2.0 | 7.0 | 0.00 | 0.00 | 0.00 | 36 | 1002.7 |
| 20260508153514 | 60 | 291 | 3.0 | 7.0 | 0.00 | 0.00 | 0.00 | 35 | 1002.8 |
| 20260508153030 | 60 | 307 | 1.0 | 8.0 | 0.00 | 0.00 | 0.00 | 37 | 1002.9 |
| 20260508152515 | 59 | 256 | 3.0 | 8.0 | 0.00 | 0.00 | 0.00 | 37 | 1002.8 |
| 20260508152014 | 59 | 240 | 2.0 | 7.0 | 0.00 | 0.00 | 0.00 | 37 | 1002.9 |
| 20260508151536 | 58 | 275 | 3.0 | 7.0 | 0.00 | 0.00 | 0.00 | 36 | 1003.1 |
| 20260508151011 | 58 | 264 | 1.0 | 7.0 | 0.00 | 0.00 | 0.00 | 41 | 1003.0 |
| 20260508150516 | 57 | 246 | 3.0 | 7.0 | 0.00 | 0.00 | 0.00 | 38 | 1003.2 |
| 20260508150035 | 57 | 268 | 2.0 | 8.0 | 0.00 | 0.00 | 0.00 | 41 | 1003.2 |
| 20260508145515 | 56 | 261 | 3.0 | 8.0 | 0.00 | 0.00 | 0.00 | 39 | 1003.3 |
| 20260508145014 | 55 | 267 | 5.0 | 7.0 | 0.00 | 0.00 | 0.00 | 42 | 1003.2 |
| 20260508144533 | 55 | 286 | 2.0 | 7.0 | 0.00 | 0.00 | 0.00 | 46 | 1003.5 |
| 20260508144016 | 54 | 269 | 3.0 | 7.0 | 0.00 | 0.00 | 0.00 | 45 | 1003.5 |
| 20260508143518 | 54 | 252 | 2.0 | 8.0 | 0.00 | 0.00 | 0.00 | 45 | 1003.4 |
| 20260508143034 | 53 | 250 | 4.0 | 8.0 | 0.00 | 0.00 | 0.00 | 43 | 1003.5 |
| 20260508142514 | 53 | 281 | 5.0 | 8.0 | 0.00 | 0.00 | 0.00 | 46 | 1003.6 |
| 20260508142013 | 52 | 261 | 3.0 | 8.0 | 0.00 | 0.00 | 0.00 | 47 | 1003.6 |
| 20260508141604 | 52 | 263 | 4.0 | 8.0 | 0.00 | 0.00 | 0.00 | 49 | 1003.6 |
| 20260508141015 | 52 | 267 | 3.0 | 6.0 | 0.00 | 0.00 | 0.00 | 47 | 1003.6 |
| 20260508140516 | 52 | 277 | 2.0 | 8.0 | 0.00 | 0.00 | 0.00 | 46 | 1003.7 |
| 20260508140031 | 51 | 268 | 2.0 | 8.0 | 0.00 | 0.00 | 0.00 | 47 | 1003.6 |
| 20260508135517 | 51 | 257 | 3.0 | 9.0 | 0.00 | 0.00 | 0.00 | 51 | 1003.7 |
| 20260508135014 | 51 | 259 | 4.0 | 9.0 | 0.00 | 0.00 | 0.00 | 52 | 1003.6 |
| 20260508134548 | 50 | 258 | 6.0 | 9.0 | 0.00 | 0.00 | 0.00 | 53 | 1003.7 |
| 20260508134010 | 50 | 273 | 4.0 | 8.0 | 0.00 | 0.00 | 0.00 | 55 | 1003.8 |
| 20260508133517 | 50 | 248 | 3.0 | 8.0 | 0.00 | 0.00 | 0.00 | 52 | 1003.7 |
| 20260508133033 | 49 | 265 | 3.0 | 8.0 | 0.00 | 0.00 | 0.00 | 52 | 1003.6 |
| 20260508132513 | 49 | 253 | 4.0 | 7.0 | 0.00 | 0.00 | 0.00 | 56 | 1003.7 |
| 20260508132015 | 49 | 270 | 3.0 | 6.0 | 0.00 | 0.00 | 0.00 | 52 | 1003.9 |
| 20260508131535 | 48 | 265 | 2.0 | 7.0 | 0.00 | 0.00 | 0.00 | 57 | 1003.7 |
| 20260508131011 | 48 | 258 | 4.0 | 7.0 | 0.00 | 0.00 | 0.00 | 55 | 1003.9 |
| 20260508130513 | 48 | 273 | 1.0 | 8.0 | 0.00 | 0.00 | 0.00 | 50 | 1003.9 |
| 20260508130033 | 48 | 272 | 3.0 | 8.0 | 0.00 | 0.00 | 0.00 | 53 | 1004.0 |
| 20260508125514 | 48 | 261 | 4.0 | 7.0 | 0.00 | 0.00 | 0.00 | 56 | 1003.9 |
| 20260508125014 | 48 | 269 | 4.0 | 8.0 | 0.00 | 0.00 | 0.00 | 53 | 1003.9 |
| 20260508124532 | 48 | 267 | 4.0 | 8.0 | 0.00 | 0.00 | 0.00 | 56 | 1003.9 |
| 20260508124014 | 47 | 261 | 4.0 | 8.0 | 0.00 | 0.00 | 0.00 | 52 | 1004.0 |
| 20260508123517 | 47 | 258 | 3.0 | 7.0 | 0.00 | 0.00 | 0.00 | 53 | 1004.0 |
| 20260508123045 | 47 | 272 | 4.0 | 7.0 | 0.00 | 0.00 | 0.00 | 53 | 1003.9 |
| 20260508122514 | 47 | 263 | 3.0 | 7.0 | 0.00 | 0.00 | 0.00 | 53 | 1004.0 |
| 20260508122015 | 47 | 266 | 2.0 | 6.0 | 0.00 | 0.00 | 0.00 | 55 | 1004.0 |
| 20260508121534 | 46 | 258 | 2.0 | 6.0 | 0.00 | 0.00 | 0.00 | 54 | 1004.0 |
| 20260508121015 | 46 | 275 | 3.0 | 7.0 | 0.00 | 0.00 | 0.00 | 54 | 1004.0 |
| 20260508120511 | 45 | 271 | 4.0 | 8.0 | 0.00 | 0.00 | 0.00 | 55 | 1003.9 |
| 20260508120035 | 45 | 271 | 4.0 | 8.0 | 0.00 | 0.00 | 0.00 | 62 | 1004.0 |
| 20260508115512 | 43 | 251 | 2.0 | 4.0 | 0.00 | 0.00 | 0.00 | 62 | 1003.8 |
| 20260508115014 | 42 | 280 | 2.0 | 3.0 | 0.00 | 0.00 | 0.00 | 61 | 1003.9 |
| 20260508114536 | 41 | 288 | 1.0 | 3.0 | 0.00 | 0.00 | 0.00 | 63 | 1003.9 |
| 20260508114011 | 40 | 259 | 1.0 | 3.0 | 0.00 | 0.00 | 0.00 | 65 | 1003.8 |
| 20260508113514 | 39 | 0 | 0.0 | 1.0 | 0.00 | 0.00 | 0.00 | 69 | 1003.8 |
| 20260508113047 | 39 | 0 | 0.0 | 1.0 | 0.00 | 0.00 | 0.00 | 68 | 1003.7 |
| 20260508112513 | 39 | 0 | 0.0 | 1.0 | 0.00 | 0.00 | 0.00 | 68 | 1003.8 |
| 20260508112016 | 39 | 0 | 0.0 | 1.0 | 0.00 | 0.00 | 0.00 | 70 | 1003.8 |
| 20260508111532 | 39 | 0 | 0.0 | 1.0 | 0.00 | 0.00 | 0.00 | 70 | 1003.8 |
| 20260508111020 | 39 | 0 | 0.0 | 1.0 | 0.00 | 0.00 | 0.00 | 66 | 1003.7 |
| 20260508110514 | 39 | 0 | 0.0 | 1.0 | 0.00 | 0.00 | 0.00 | 65 | 1003.6 |
| 20260508110032 | 39 | 0 | 0.0 | 2.0 | 0.00 | 0.00 | 0.00 | 65 | 1003.7 |
| 20260508105514 | 39 | 0 | 0.0 | 2.0 | 0.00 | 0.00 | 0.00 | 65 | 1003.7 |
| 20260508105018 | 40 | 255 | 0.0 | 1.0 | 0.00 | 0.00 | 0.00 | 67 | 1003.7 |
| 20260508104532 | 40 | 0 | 0.0 | 0.0 | 0.00 | 0.00 | 0.00 | 69 | 1003.7 |
| 20260508104013 | 40 | 0 | 0.0 | 0.0 | 0.00 | 0.00 | 0.00 | 65 | 1003.6 |
| 20260508103513 | 40 | 0 | 0.0 | 1.0 | 0.00 | 0.00 | 0.00 | 65 | 1003.7 |
| 20260508103035 | 40 | 0 | 0.0 | 1.0 | 0.00 | 0.00 | 0.00 | 65 | 1003.8 |
| 20260508102511 | 40 | 0 | 0.0 | 1.0 | 0.00 | 0.00 | 0.00 | 64 | 1003.8 |
| 20260508102013 | 40 | 0 | 0.0 | 1.0 | 0.00 | 0.00 | 0.00 | 65 | 1003.9 |
| 20260508101534 | 39 | 0 | 0.0 | 1.0 | 0.00 | 0.00 | 0.00 | 65 | 1003.9 |
| 20260508101019 | 39 | 0 | 0.0 | 0.0 | 0.00 | 0.00 | 0.00 | 66 | 1004.0 |
| 20260508100516 | 39 | 0 | 0.0 | 1.0 | 0.00 | 0.00 | 0.00 | 68 | 1004.0 |
| 20260508100034 | 39 | 0 | 0.0 | 1.0 | 0.00 | 0.00 | 0.00 | 71 | 1003.9 |
| 20260508095516 | 38 | 0 | 0.0 | 0.0 | 0.00 | 0.00 | 0.00 | 73 | 1004.1 |
| 20260508095016 | 38 | 0 | 0.0 | 1.0 | 0.00 | 0.00 | 0.00 | 70 | 1004.0 |
| 20260508094533 | 38 | 0 | 0.0 | 1.0 | 0.00 | 0.00 | 0.00 | 71 | 1004.0 |
| 20260508094013 | 38 | 0 | 0.0 | 0.0 | 0.00 | 0.00 | 0.00 | 72 | 1004.0 |
| 20260508093516 | 38 | 0 | 0.0 | 0.0 | 0.00 | 0.00 | 0.00 | 71 | 1004.0 |
| 20260508093032 | 38 | 0 | 0.0 | 0.0 | 0.00 | 0.00 | 0.00 | 73 | 1004.0 |
| 20260508092517 | 38 | 0 | 0.0 | 0.0 | 0.00 | 0.00 | 0.00 | 74 | 1004.2 |
| 20260508092013 | 38 | 0 | 0.0 | 0.0 | 0.00 | 0.00 | 0.00 | 73 | 1004.1 |
| 20260508091537 | 38 | 0 | 0.0 | 0.0 | 0.00 | 0.00 | 0.00 | 73 | 1004.2 |
| 20260508091020 | 38 | 0 | 0.0 | 0.0 | 0.00 | 0.00 | 0.00 | 74 | 1004.2 |
| 20260508090515 | 38 | 0 | 0.0 | 0.0 | 0.00 | 0.00 | 0.00 | 75 | 1004.2 |
| 20260508090039 | 38 | 0 | 0.0 | 0.0 | 0.00 | 0.00 | 0.00 | 74 | 1004.2 |
| 20260508085514 | 38 | 0 | 0.0 | 0.0 | 0.00 | 0.00 | 0.00 | 75 | 1004.2 |
| 20260508085015 | 38 | 0 | 0.0 | 0.0 | 0.00 | 0.00 | 0.00 | 76 | 1004.2 |
| 20260508084535 | 38 | 0 | 0.0 | 0.0 | 0.00 | 0.00 | 0.00 | 76 | 1004.0 |
| 20260508084015 | 37 | 0 | 0.0 | 0.0 | 0.00 | 0.00 | 0.00 | 75 | 1004.2 |
| 20260508083515 | 37 | 0 | 0.0 | 0.0 | 0.00 | 0.00 | 0.00 | 75 | 1004.2 |
| 20260508083035 | 37 | 0 | 0.0 | 0.0 | 0.00 | 0.00 | 0.00 | 74 | 1004.2 |
| 20260508082513 | 37 | 0 | 0.0 | 0.0 | 0.00 | 0.00 | 0.00 | 75 | 1004.3 |
| 20260508082016 | 38 | 0 | 0.0 | 1.0 | 0.00 | 0.00 | 0.00 | 78 | 1004.3 |
| 20260508081534 | 38 | 0 | 0.0 | 2.0 | 0.00 | 0.00 | 0.00 | 80 | 1004.2 |
| 20260508081014 | 38 | 0 | 0.0 | 2.0 | 0.00 | 0.00 | 0.00 | 81 | 1004.2 |
| 20260508080514 | 38 | 255 | 0.0 | 2.0 | 0.00 | 0.00 | 0.00 | 80 | 1004.4 |
| 20260508080036 | 38 | 255 | 0.0 | 2.0 | 0.00 | 0.00 | 0.00 | 78 | 1004.4 |
| 20260508075514 | 37 | 0 | 0.0 | 0.0 | 0.00 | 0.00 | 0.00 | 74 | 1004.4 |
| 20260508075013 | 37 | 0 | 0.0 | 1.0 | 0.00 | 0.00 | 0.00 | 73 | 1004.4 |
| 20260508074545 | 38 | 0 | 0.0 | 2.0 | 0.00 | 0.00 | 0.00 | 76 | 1004.5 |
| 20260508074015 | 38 | 0 | 0.0 | 2.0 | 0.00 | 0.00 | 0.00 | 78 | 1004.5 |
| 20260508073513 | 38 | 0 | 0.0 | 1.0 | 0.00 | 0.00 | 0.00 | 75 | 1004.4 |
| 20260508073031 | 38 | 0 | 0.0 | 0.0 | 0.00 | 0.00 | 0.00 | 74 | 1004.5 |
| 20260508072513 | 38 | 0 | 0.0 | 0.0 | 0.00 | 0.00 | 0.00 | 76 | 1004.6 |
| 20260508072014 | 38 | 0 | 0.0 | 0.0 | 0.00 | 0.00 | 0.00 | 76 | 1004.5 |
| 20260508071536 | 38 | 0 | 0.0 | 1.0 | 0.00 | 0.00 | 0.00 | 75 | 1004.6 |
| 20260508071033 | 38 | 0 | 0.0 | 2.0 | 0.00 | 0.00 | 0.00 | 77 | 1004.6 |
| 20260508070517 | 38 | 0 | 0.0 | 2.0 | 0.00 | 0.00 | 0.00 | 78 | 1004.7 |
| 20260508070033 | 38 | 0 | 0.0 | 3.0 | 0.00 | 0.00 | 0.00 | 78 | 1004.6 |
| 20260508065514 | 38 | 0 | 0.0 | 3.0 | 0.00 | 0.00 | 0.00 | 78 | 1004.6 |
| 20260508065019 | 39 | 255 | 0.0 | 2.0 | 0.00 | 0.00 | 0.00 | 78 | 1004.7 |
| 20260508064535 | 39 | 255 | 1.0 | 2.0 | 0.00 | 0.00 | 0.00 | 78 | 1004.6 |
| 20260508064015 | 39 | 255 | 0.0 | 2.0 | 0.00 | 0.00 | 0.00 | 75 | 1004.7 |
| 20260508063514 | 39 | 0 | 0.0 | 1.0 | 0.00 | 0.00 | 0.00 | 74 | 1004.9 |
| 20260508063032 | 39 | 0 | 0.0 | 1.0 | 0.00 | 0.00 | 0.00 | 77 | 1004.8 |
| 20260508062513 | 39 | 255 | 0.0 | 2.0 | 0.00 | 0.00 | 0.00 | 75 | 1004.9 |
| 20260508062014 | 39 | 0 | 0.0 | 3.0 | 0.00 | 0.00 | 0.00 | 74 | 1005.0 |
| 20260508061532 | 39 | 255 | 0.0 | 4.0 | 0.00 | 0.00 | 0.00 | 75 | 1005.0 |
| 20260508061012 | 39 | 255 | 2.0 | 4.0 | 0.00 | 0.00 | 0.00 | 76 | 1004.9 |
| 20260508060515 | 40 | 0 | 0.0 | 1.0 | 0.00 | 0.00 | 0.00 | 72 | 1004.8 |
| 20260508060031 | 40 | 0 | 0.0 | 2.0 | 0.00 | 0.00 | 0.00 | 74 | 1004.9 |
| 20260508055515 | 40 | 0 | 0.0 | 2.0 | 0.00 | 0.00 | 0.00 | 75 | 1004.9 |
| 20260508055015 | 40 | 272 | 0.0 | 3.0 | 0.00 | 0.00 | 0.00 | 76 | 1004.9 |
| 20260508054531 | 40 | 272 | 1.0 | 3.0 | 0.00 | 0.00 | 0.00 | 76 | 1005.0 |
| 20260508054014 | 40 | 0 | 0.0 | 0.0 | 0.00 | 0.00 | 0.00 | 69 | 1004.9 |
| 20260508053514 | 40 | 0 | 0.0 | 0.0 | 0.00 | 0.00 | 0.00 | 67 | 1005.2 |
| 20260508053032 | 40 | 0 | 0.0 | 0.0 | 0.00 | 0.00 | 0.00 | 70 | 1005.2 |
| 20260508052515 | 41 | 0 | 0.0 | 1.0 | 0.00 | 0.00 | 0.00 | 71 | 1005.3 |
| 20260508052015 | 41 | 0 | 0.0 | 2.0 | 0.00 | 0.00 | 0.00 | 74 | 1005.2 |
| 20260508051535 | 41 | 0 | 0.0 | 2.0 | 0.00 | 0.00 | 0.00 | 74 | 1005.2 |
| 20260508051015 | 41 | 272 | 0.0 | 2.0 | 0.00 | 0.00 | 0.00 | 72 | 1005.1 |
| 20260508050515 | 41 | 0 | 0.0 | 1.0 | 0.00 | 0.00 | 0.00 | 69 | 1005.1 |
| 20260508050033 | 41 | 0 | 0.0 | 1.0 | 0.00 | 0.00 | 0.00 | 70 | 1005.2 |
| 20260508045521 | 41 | 0 | 0.0 | 0.0 | 0.00 | 0.00 | 0.00 | 66 | 1005.3 |
| 20260508045014 | 41 | 0 | 0.0 | 0.0 | 0.00 | 0.00 | 0.00 | 64 | 1005.3 |
| 20260508044534 | 41 | 0 | 0.0 | 1.0 | 0.00 | 0.00 | 0.00 | 67 | 1005.3 |
| 20260508044016 | 42 | 0 | 0.0 | 1.0 | 0.00 | 0.00 | 0.00 | 69 | 1005.4 |
| 20260508043523 | 42 | 272 | 0.0 | 1.0 | 0.00 | 0.00 | 0.00 | 63 | 1005.4 |
| 20260508043031 | 42 | 0 | 0.0 | 0.0 | 0.00 | 0.00 | 0.00 | 60 | 1005.5 |
| 20260508042515 | 42 | 0 | 0.0 | 0.0 | 0.00 | 0.00 | 0.00 | 63 | 1005.3 |
| 20260508042015 | 42 | 0 | 0.0 | 1.0 | 0.00 | 0.00 | 0.00 | 63 | 1005.4 |
| 20260508041534 | 42 | 0 | 0.0 | 1.0 | 0.00 | 0.00 | 0.00 | 63 | 1005.5 |
| 20260508041015 | 42 | 0 | 0.0 | 0.0 | 0.00 | 0.00 | 0.00 | 59 | 1005.5 |
| 20260508040518 | 43 | 0 | 0.0 | 0.0 | 0.00 | 0.00 | 0.00 | 59 | 1005.5 |
| 20260508040035 | 43 | 0 | 0.0 | 0.0 | 0.00 | 0.00 | 0.00 | 62 | 1005.5 |
| 20260508035515 | 43 | 0 | 0.0 | 0.0 | 0.00 | 0.00 | 0.00 | 62 | 1005.6 |
| 20260508035020 | 43 | 0 | 0.0 | 0.0 | 0.00 | 0.00 | 0.00 | 59 | 1005.6 |
| 20260508034533 | 43 | 0 | 0.0 | 0.0 | 0.00 | 0.00 | 0.00 | 56 | 1005.7 |
| 20260508034015 | 43 | 0 | 0.0 | 0.0 | 0.00 | 0.00 | 0.00 | 57 | 1005.8 |
| 20260508033518 | 44 | 0 | 0.0 | 1.0 | 0.00 | 0.00 | 0.00 | 62 | 1005.7 |
| 20260508033034 | 44 | 0 | 0.0 | 2.0 | 0.00 | 0.00 | 0.00 | 66 | 1005.9 |
| 20260508032515 | 44 | 0 | 0.0 | 2.0 | 0.00 | 0.00 | 0.00 | 66 | 1005.9 |
| 20260508032017 | 44 | 272 | 0.0 | 2.0 | 0.00 | 0.00 | 0.00 | 66 | 1005.7 |
| 20260508031531 | 45 | 0 | 0.0 | 0.0 | 0.00 | 0.00 | 0.00 | 53 | 1005.6 |
| 20260508031016 | 45 | 0 | 0.0 | 1.0 | 0.00 | 0.00 | 0.00 | 52 | 1005.7 |
| 20260508030515 | 45 | 0 | 0.0 | 1.0 | 0.00 | 0.00 | 0.00 | 53 | 1005.6 |
| 20260508030037 | 46 | 0 | 0.0 | 2.0 | 0.00 | 0.00 | 0.00 | 55 | 1005.7 |
| 20260508025514 | 46 | 0 | 0.0 | 2.0 | 0.00 | 0.00 | 0.00 | 60 | 1005.8 |
| 20260508025019 | 46 | 272 | 0.0 | 2.0 | 0.00 | 0.00 | 0.00 | 63 | 1005.7 |
| 20260508024537 | 47 | 0 | 0.0 | 1.0 | 0.00 | 0.00 | 0.00 | 54 | 1005.5 |
| 20260508024013 | 47 | 0 | 0.0 | 1.0 | 0.00 | 0.00 | 0.00 | 50 | 1005.6 |
| 20260508023517 | 48 | 0 | 0.0 | 1.0 | 0.00 | 0.00 | 0.00 | 49 | 1005.5 |
| 20260508023032 | 48 | 0 | 0.0 | 1.0 | 0.00 | 0.00 | 0.00 | 53 | 1005.6 |
| 20260508022517 | 49 | 0 | 0.0 | 1.0 | 0.00 | 0.00 | 0.00 | 60 | 1005.6 |
| 20260508022019 | 50 | 0 | 0.0 | 1.0 | 0.00 | 0.00 | 0.00 | 52 | 1005.6 |
| 20260508021539 | 50 | 0 | 0.0 | 1.0 | 0.00 | 0.00 | 0.00 | 45 | 1005.5 |
| 20260508021018 | 51 | 0 | 0.0 | 1.0 | 0.00 | 0.00 | 0.00 | 42 | 1005.5 |
| 20260508020513 | 52 | 0 | 0.0 | 1.0 | 0.00 | 0.00 | 0.00 | 41 | 1005.3 |
| 20260508020034 | 52 | 0 | 0.0 | 2.0 | 0.00 | 0.00 | 0.00 | 39 | 1005.4 |
| 20260508015513 | 52 | 0 | 0.0 | 2.0 | 0.00 | 0.00 | 0.00 | 38 | 1005.4 |
| 20260508015014 | 53 | 272 | 0.0 | 1.0 | 0.00 | 0.00 | 0.00 | 39 | 1005.2 |
| 20260508014533 | 53 | 0 | 0.0 | 1.0 | 0.00 | 0.00 | 0.00 | 36 | 1005.3 |
| 20260508014016 | 53 | 0 | 0.0 | 2.0 | 0.00 | 0.00 | 0.00 | 37 | 1005.4 |
| 20260508013517 | 54 | 272 | 0.0 | 2.0 | 0.00 | 0.00 | 0.00 | 39 | 1005.4 |
| 20260508013040 | 54 | 272 | 1.0 | 2.0 | 0.00 | 0.00 | 0.00 | 39 | 1005.2 |
| 20260508012514 | 54 | 272 | 1.0 | 2.0 | 0.00 | 0.00 | 0.00 | 41 | 1005.2 |
| 20260508012014 | 55 | 272 | 0.0 | 2.0 | 0.00 | 0.00 | 0.00 | 38 | 1005.1 |
| 20260508011533 | 55 | 272 | 1.0 | 3.0 | 0.00 | 0.00 | 0.00 | 37 | 1005.2 |
| 20260508011013 | 55 | 273 | 1.0 | 3.0 | 0.00 | 0.00 | 0.00 | 35 | 1005.2 |
| 20260508010515 | 55 | 275 | 2.0 | 4.0 | 0.00 | 0.00 | 0.00 | 35 | 1005.1 |
| 20260508010035 | 56 | 273 | 2.0 | 4.0 | 0.00 | 0.00 | 0.00 | 35 | 1005.0 |
| 20260508005518 | 56 | 270 | 2.0 | 4.0 | 0.00 | 0.00 | 0.00 | 36 | 1005.0 |
| 20260508005017 | 56 | 276 | 2.0 | 4.0 | 0.00 | 0.00 | 0.00 | 35 | 1005.1 |
| 20260508004538 | 56 | 280 | 2.0 | 5.0 | 0.00 | 0.00 | 0.00 | 34 | 1005.2 |
| 20260508004013 | 56 | 269 | 2.0 | 5.0 | 0.00 | 0.00 | 0.00 | 34 | 1005.1 |
| 20260508003515 | 56 | 291 | 1.0 | 9.0 | 0.00 | 0.00 | 0.00 | 33 | 1005.1 |
| 20260508003032 | 56 | 286 | 3.0 | 9.0 | 0.00 | 0.00 | 0.00 | 34 | 1005.1 |
| 20260508002514 | 56 | 257 | 5.0 | 9.0 | 0.00 | 0.00 | 0.00 | 38 | 1005.1 |
| 20260508002013 | 57 | 259 | 4.0 | 9.0 | 0.00 | 0.00 | 0.00 | 35 | 1005.1 |
| 20260508001534 | 57 | 280 | 3.0 | 9.0 | 0.00 | 0.00 | 0.00 | 32 | 1005.1 |
| 20260508001014 | 57 | 278 | 1.0 | 4.0 | 0.00 | 0.00 | 0.00 | 31 | 1005.2 |
| 20260508000515 | 57 | 263 | 1.0 | 7.0 | 0.00 | 0.00 | 0.00 | 32 | 1005.2 |
| 20260508000032 | 57 | 296 | 3.0 | 8.0 | 0.00 | 0.00 | 0.00 | 30 | 1005.2 |
| 20260507235514 | 58 | 279 | 3.0 | 11.0 | 0.00 | 0.00 | 0.00 | 30 | 1005.3 |
| 20260507235015 | 58 | 288 | 4.0 | 11.0 | 0.00 | 0.00 | 0.00 | 29 | 1005.1 |
| 20260507234532 | 58 | 325 | 1.0 | 6.0 | 0.00 | 0.00 | 0.00 | 29 | 1005.2 |
| 20260507234013 | 58 | 296 | 2.0 | 6.0 | 0.00 | 0.00 | 0.00 | 30 | 1005.2 |
| 20260507233516 | 58 | 338 | 2.0 | 7.0 | 0.00 | 0.00 | 0.00 | 29 | 1005.3 |
| 20260507233037 | 58 | 302 | 2.0 | 8.0 | 0.00 | 0.00 | 0.00 | 30 | 1005.4 |
| 20260507232515 | 58 | 284 | 3.0 | 8.0 | 0.00 | 0.00 | 0.00 | 32 | 1005.4 |
| 20260507232017 | 58 | 304 | 1.0 | 9.0 | 0.00 | 0.00 | 0.00 | 30 | 1005.3 |
| 20260507231533 | 58 | 315 | 3.0 | 10.0 | 0.00 | 0.00 | 0.00 | 31 | 1005.3 |
| 20260507231020 | 58 | 279 | 6.0 | 10.0 | 0.00 | 0.00 | 0.00 | 31 | 1005.3 |
| 20260507230515 | 58 | 303 | 4.0 | 9.0 | 0.00 | 0.00 | 0.00 | 30 | 1005.4 |
| 20260507230030 | 58 | 309 | 3.0 | 12.0 | 0.00 | 0.00 | 0.00 | 29 | 1005.4 |
| 20260507225513 | 58 | 292 | 6.0 | 15.0 | 0.00 | 0.00 | 0.00 | 31 | 1005.4 |
| 20260507225014 | 58 | 288 | 1.0 | 16.0 | 0.00 | 0.00 | 0.00 | 30 | 1005.3 |
| 20260507224536 | 58 | 300 | 4.0 | 16.0 | 0.00 | 0.00 | 0.00 | 30 | 1005.2 |
| 20260507224014 | 58 | 311 | 1.0 | 11.0 | 0.00 | 0.00 | 0.00 | 32 | 1005.3 |
| 20260507223514 | 57 | 263 | 6.0 | 11.0 | 0.00 | 0.00 | 0.00 | 32 | 1005.6 |
| 20260507223031 | 58 | 260 | 2.0 | 7.0 | 0.00 | 0.00 | 0.00 | 34 | 1005.6 |
| 20260507222514 | 58 | 300 | 0.0 | 7.0 | 0.00 | 0.00 | 0.00 | 30 | 1005.5 |
| 20260507222015 | 58 | 329 | 3.0 | 8.0 | 0.00 | 0.00 | 0.00 | 33 | 1005.5 |
| 20260507221534 | 57 | 290 | 4.0 | 12.0 | 0.00 | 0.00 | 0.00 | 32 | 1005.5 |
| 20260507221015 | 57 | 327 | 4.0 | 14.0 | 0.00 | 0.00 | 0.00 | 34 | 1005.8 |
| 20260507220512 | 57 | 289 | 7.0 | 14.0 | 0.00 | 0.00 | 0.00 | 32 | 1005.7 |
| 20260507220035 | 57 | 253 | 6.0 | 12.0 | 0.00 | 0.00 | 0.00 | 33 | 1005.8 |
| 20260507215513 | 58 | 269 | 4.0 | 9.0 | 0.00 | 0.00 | 0.00 | 32 | 1005.9 |
| 20260507215013 | 58 | 360 | 2.0 | 10.0 | 0.00 | 0.00 | 0.00 | 30 | 1006.0 |
| 20260507214541 | 58 | 282 | 5.0 | 10.0 | 0.00 | 0.00 | 0.00 | 33 | 1006.0 |
| 20260507214016 | 57 | 292 | 1.0 | 14.0 | 0.00 | 0.00 | 0.00 | 33 | 1006.0 |
| 20260507213516 | 56 | 309 | 5.0 | 14.0 | 0.00 | 0.00 | 0.00 | 33 | 1005.8 |
| 20260507213032 | 56 | 285 | 3.0 | 10.0 | 0.00 | 0.00 | 0.00 | 32 | 1005.9 |
| 20260507212514 | 56 | 264 | 6.0 | 13.0 | 0.00 | 0.00 | 0.00 | 35 | 1006.0 |
| 20260507212016 | 55 | 264 | 5.0 | 13.0 | 0.00 | 0.00 | 0.00 | 36 | 1005.9 |
| 20260507211532 | 55 | 259 | 7.0 | 12.0 | 0.00 | 0.00 | 0.00 | 39 | 1006.0 |
| 20260507211013 | 56 | 253 | 6.0 | 11.0 | 0.00 | 0.00 | 0.00 | 35 | 1006.1 |
| 20260507210513 | 56 | 321 | 4.0 | 18.0 | 0.00 | 0.00 | 0.00 | 35 | 1006.3 |
| 20260507210047 | 55 | 268 | 6.0 | 18.0 | 0.00 | 0.00 | 0.00 | 43 | 1006.1 |
| 20260507205513 | 56 | 271 | 8.0 | 16.0 | 0.00 | 0.00 | 0.00 | 38 | 1006.1 |
| 20260507205018 | 56 | 48 | 3.0 | 10.0 | 0.00 | 0.00 | 0.00 | 33 | 1006.1 |
| 20260507204530 | 56 | 291 | 4.0 | 14.0 | 0.00 | 0.00 | 0.00 | 33 | 1006.1 |
| 20260507204012 | 56 | 281 | 5.0 | 14.0 | 0.00 | 0.00 | 0.00 | 33 | 1006.3 |
| 20260507203516 | 56 | 290 | 1.0 | 13.0 | 0.00 | 0.00 | 0.00 | 35 | 1006.3 |
| 20260507203042 | 56 | 271 | 3.0 | 13.0 | 0.00 | 0.00 | 0.00 | 31 | 1006.5 |
| 20260507202515 | 56 | 287 | 6.0 | 10.0 | 0.00 | 0.00 | 0.00 | 39 | 1006.6 |
| 20260507202013 | 56 | 250 | 2.0 | 6.0 | 0.00 | 0.00 | 0.00 | 34 | 1006.6 |
| 20260507201540 | 56 | 342 | 1.0 | 5.0 | 0.00 | 0.00 | 0.00 | 33 | 1006.8 |
| 20260507201014 | 55 | 224 | 1.0 | 9.0 | 0.00 | 0.00 | 0.00 | 33 | 1006.9 |
| 20260507200516 | 55 | 280 | 4.0 | 13.0 | 0.00 | 0.00 | 0.00 | 35 | 1006.9 |
| 20260507200036 | 54 | 252 | 6.0 | 13.0 | 0.00 | 0.00 | 0.00 | 36 | 1007.0 |
| 20260507195517 | 55 | 230 | 2.0 | 8.0 | 0.00 | 0.00 | 0.00 | 35 | 1006.8 |
| 20260507195014 | 55 | 242 | 3.0 | 10.0 | 0.00 | 0.00 | 0.00 | 32 | 1007.1 |
| 20260507194559 | 55 | 292 | 3.0 | 10.0 | 0.00 | 0.00 | 0.00 | 32 | 1007.1 |
| 20260507194014 | 56 | 290 | 3.0 | 8.0 | 0.00 | 0.00 | 0.00 | 33 | 1007.1 |
| 20260507193514 | 56 | 287 | 2.0 | 7.0 | 0.00 | 0.00 | 0.00 | 34 | 1007.2 |
| 20260507193033 | 55 | 342 | 2.0 | 7.0 | 0.00 | 0.00 | 0.00 | 34 | 1007.3 |
| 20260507192514 | 54 | 252 | 2.0 | 9.0 | 0.00 | 0.00 | 0.00 | 34 | 1007.4 |
| 20260507192014 | 53 | 0 | 3.0 | 9.0 | 0.00 | 0.00 | 0.00 | 36 | 1007.3 |
| 20260507191539 | 53 | 258 | 4.0 | 16.0 | 0.00 | 0.00 | 0.00 | 34 | 1007.2 |
| 20260507191012 | 53 | 259 | 8.0 | 16.0 | 0.00 | 0.00 | 0.00 | 36 | 1007.2 |
| 20260507190514 | 53 | 264 | 6.0 | 14.0 | 0.00 | 0.00 | 0.00 | 38 | 1007.4 |
| 20260507190034 | 53 | 263 | 7.0 | 14.0 | 0.00 | 0.00 | 0.00 | 34 | 1007.4 |
| 20260507185514 | 53 | 250 | 5.0 | 14.0 | 0.00 | 0.00 | 0.00 | 37 | 1007.2 |
| 20260507185017 | 53 | 261 | 6.0 | 14.0 | 0.00 | 0.00 | 0.00 | 36 | 1007.4 |
| 20260507184539 | 53 | 264 | 6.0 | 17.0 | 0.00 | 0.00 | 0.00 | 37 | 1007.5 |
| 20260507184013 | 53 | 274 | 8.0 | 17.0 | 0.00 | 0.00 | 0.00 | 35 | 1007.5 |
| 20260507183514 | 53 | 213 | 7.0 | 13.0 | 0.00 | 0.00 | 0.00 | 33 | 1007.4 |
| 20260507183036 | 53 | 279 | 6.0 | 13.0 | 0.00 | 0.00 | 0.00 | 33 | 1007.4 |
| 20260507182513 | 53 | 279 | 4.0 | 10.0 | 0.00 | 0.00 | 0.00 | 33 | 1007.7 |
| 20260507182013 | 53 | 279 | 3.0 | 10.0 | 0.00 | 0.00 | 0.00 | 34 | 1007.7 |
| 20260507181533 | 53 | 265 | 3.0 | 10.0 | 0.00 | 0.00 | 0.00 | 33 | 1007.8 |
| 20260507181015 | 52 | 273 | 5.0 | 10.0 | 0.00 | 0.00 | 0.00 | 32 | 1007.9 |
| 20260507180514 | 52 | 275 | 4.0 | 10.0 | 0.00 | 0.00 | 0.00 | 37 | 1007.8 |
| 20260507180037 | 52 | 245 | 5.0 | 10.0 | 0.00 | 0.00 | 0.00 | 34 | 1007.8 |
| 20260507175514 | 53 | 235 | 4.0 | 11.0 | 0.00 | 0.00 | 0.00 | 32 | 1007.8 |
| 20260507175014 | 53 | 261 | 3.0 | 11.0 | 0.00 | 0.00 | 0.00 | 34 | 1007.9 |
| 20260507174542 | 54 | 269 | 3.0 | 7.0 | 0.00 | 0.00 | 0.00 | 33 | 1008.0 |
| 20260507174013 | 53 | 352 | 1.0 | 6.0 | 0.00 | 0.00 | 0.00 | 35 | 1008.0 |
| 20260507173516 | 53 | 23 | 1.0 | 7.0 | 0.00 | 0.00 | 0.00 | 36 | 1008.0 |
| 20260507173037 | 52 | 325 | 2.0 | 7.0 | 0.00 | 0.00 | 0.00 | 38 | 1008.1 |
| 20260507172516 | 51 | 290 | 1.0 | 10.0 | 0.00 | 0.00 | 0.00 | 38 | 1008.1 |
| 20260507172013 | 50 | 316 | 2.0 | 15.0 | 0.00 | 0.00 | 0.00 | 41 | 1008.2 |
| 20260507171540 | 50 | 271 | 8.0 | 15.0 | 0.00 | 0.00 | 0.00 | 39 | 1008.2 |
| 20260507171016 | 50 | 188 | 2.0 | 9.0 | 0.00 | 0.00 | 0.00 | 37 | 1008.3 |
| 20260507170515 | 50 | 246 | 4.0 | 8.0 | 0.00 | 0.00 | 0.00 | 37 | 1008.3 |
| 20260507170035 | 50 | 0 | 2.0 | 10.0 | 0.00 | 0.00 | 0.00 | 36 | 1008.5 |
| 20260507165514 | 50 | 244 | 4.0 | 10.0 | 0.00 | 0.00 | 0.00 | 37 | 1008.5 |
| 20260507165015 | 50 | 268 | 2.0 | 8.0 | 0.00 | 0.00 | 0.00 | 43 | 1008.5 |
| 20260507164531 | 50 | 248 | 2.0 | 8.0 | 0.00 | 0.00 | 0.00 | 37 | 1008.5 |
| 20260507164015 | 49 | 264 | 3.0 | 8.0 | 0.00 | 0.00 | 0.00 | 37 | 1008.6 |
| 20260507163517 | 49 | 117 | 3.0 | 8.0 | 0.00 | 0.00 | 0.00 | 36 | 1008.5 |
| 20260507163031 | 49 | 150 | 2.0 | 13.0 | 0.00 | 0.00 | 0.00 | 36 | 1008.8 |
| 20260507162514 | 48 | 257 | 6.0 | 13.0 | 0.00 | 0.00 | 0.00 | 39 | 1008.8 |
| 20260507162014 | 48 | 245 | 3.0 | 8.0 | 0.00 | 0.00 | 0.00 | 41 | 1008.8 |
| 20260507161536 | 48 | 244 | 2.0 | 9.0 | 0.00 | 0.00 | 0.00 | 39 | 1008.9 |